Погода в Огороне

Россия / Амурская область     53°57′40″N   129°08′39″E
В апреле 2022 года жителям России запретили посещать сайт meteo.paraplan.net по решению Генеральной прокуратуры. Аудитория сайта уменьшилась в 10 раз. Владельцы сайта не видят смысла в поддержке погодного сервера в таких условиях. Сайт будет закрыт в октябре.
темп.,
°C
ветер,
м/с
пор.,
м/с
влажн.,
%
обл.,
%
осадки,
мм/ч
давл.,
гПа
погр.,
м
4 октября, вт
вт400:00−5ссз247735 0.0 1018100
03:00−7ссз248138 0.0 1019103
06:00−7сз2378100 0.0 101991
09:00−4сз235983 0.0 1019412
12:00−1ссз453672 0.0 10171228
15:000ссз6737100 0.0 10161896
18:00−3ссз375724 0.0 1017221
21:00−6сз227343 0.0 101824
5 октября, ср
ср500:00−6зсз228185 0.0 101739
03:00−6зсз1283100 0.0 101723
06:00−6зсз2289100 0.0 101639
09:00−1сз595717 0.0 1016982
12:00+1сз8103938 0.0 10141740
15:00+1ссз7943100 0.0 10141968
18:00−2сз6116299 0.1 1016608
21:00−4сз5127236 0.1 1016510
6 октября, чт
чт600:00−5сз512755 0.0 1016510
03:00−5зсз4107929 0.0 1016392
06:00−5зсз398096 0.0 1016318
09:00−2сз596093 0.0 1016785
12:00+2зсз794374 0.0 10141459
15:00+3зсз8104598 0.0 10141544
18:00−1зсз4106596 0.0 1016509
21:00−3зюз257954 0.0 101698
7 октября, пт
пт700:00−4юз239046 0.0 101737
03:00−4юз2292100 0.0 101725
06:00−4зюз2291100 0.0 101847
09:00−1сз3668100 0.0 1018566
12:00+3зсз56495 0.0 10181205
15:00+4сз6844100 0.1 10181813
18:00−1зсз5116682 0.0 1020370
21:00−4зсз24815 0.0 102376
8 октября, сб
сб800:00−5з12815 0.0 102432
03:00−6зсз12825 0.0 102521
06:00−6ссз127766 0.0 102746
09:00−4сз23535 0.0 1027400
12:000ссз343910 0.0 1027883
15:00+1ссз45365 0.0 10261180
18:00−3ссз22595 0.0 102713
21:00−5сз11715 0.0 102810